Laredo, TX

9:22 PM CST on December 09, 2016 (GMT -0600)
Laredo International

Weather History for KLRD - September, 2012

Change the Weather History Date:

Monday, September 10, 2012

  Actual Average Record
Temperature  
Mean Temperature 85 °F 85 °F  
Max Temperature 97 °F 95 °F 105 °F (2000)
Min Temperature 72 °F 74 °F 61 °F (1974)
Degree Days  
Heating Degree Days 0 0  
Month to date heating degree days 0 0  
Since 1 July heating degree days 0 0  
Cooling Degree Days 20 19  
Month to date cooling degree days 250 205  
Year to date cooling degree days 4078 3448  
Growing Degree Days 34 (Base 50)    
Moisture  
Dew Point 55 °F    
Average Humidity 41    
Maximum Humidity 68    
Minimum Humidity 17    
Precipitation  
Precipitation 0.00 in 0.11 in 7.25 in (1903)
Month to date precipitation 0.00 1.09  
Year to date precipitation 5.90 14.08  
Sea Level Pressure  
Sea Level Pressure 30.02 in    
Wind  
Wind Speed 8 mph (SE)    
Max Wind Speed 23 mph    
Max Gust Speed 27 mph    
Visibility 10 miles    
Events      
T = Trace of Precipitation, MM = Missing Value Source: NWS Daily Summary

Daily Weather History Graph

Daily Weather History Graph

Search for Another Location

Airport or City:

Trip Planner

Search our weather history database for the weather conditions in past years. The results will help you decide how hot, cold, wet, or windy it might be!

Date:

Astronomy

Sep. 10, 2012 Rise Set
Actual Time 7:21 AM CDT 7:47 PM CDT
Civil Twilight 6:57 AM CDT 8:11 PM CDT
Nautical Twilight 6:30 AM CDT 8:38 PM CDT
Astronomical Twilight 6:02 AM CDT 9:06 PM CDT
Moon 2:05 AM CDT 3:58 PM CDT
Length of Visible Light 13h 13m
Length of Day
12h 26m
Waning Crescent, 30% of the Moon is Illuminated
Sep 10
Waning Crescent
Sep 15
New
Sep 22
First Quarter
Sep 29
Full
Oct 8
Last Quarter

Hourly Weather History & Observations

Time (CDT) Temp. Heat Index Dew Point Humidity Pressure Visibility Wind Dir Wind Speed Gust Speed Precip Events Conditions
12:56 AM 79.9 °F - 56.8 °F 45% 30.04 in 10.0 mi SSE 10.4 mph - N/A   Clear
1:56 AM 77.9 °F - 57.9 °F 50% 30.04 in 10.0 mi SE 8.1 mph - N/A   Clear
2:56 AM 77.0 °F - 59.0 °F 54% 30.03 in 10.0 mi SSE 9.2 mph - N/A   Clear
3:56 AM 74.8 °F - 59.9 °F 60% 30.03 in 10.0 mi SE 6.9 mph - N/A   Clear
4:56 AM 72.9 °F - 59.9 °F 64% 30.03 in 10.0 mi SSE 5.8 mph - N/A   Clear
5:56 AM 72.0 °F - 59.9 °F 66% 30.04 in 10.0 mi South 4.6 mph - N/A   Clear
6:56 AM 72.0 °F - 61.0 °F 68% 30.05 in 10.0 mi Calm Calm - N/A   Clear
7:56 AM 72.9 °F - 61.9 °F 68% 30.07 in 10.0 mi SSE 5.8 mph - N/A   Clear
8:56 AM 75.9 °F - 63.9 °F 66% 30.09 in 10.0 mi South 5.8 mph - N/A   Clear
9:56 AM 81.9 °F 82.8 °F 61.9 °F 51% 30.09 in 10.0 mi South 9.2 mph - N/A   Clear
10:56 AM 86.9 °F 86.3 °F 59.0 °F 39% 30.09 in 10.0 mi Variable 5.8 mph - N/A   Clear
11:56 AM 90.0 °F 88.1 °F 55.9 °F 31% 30.08 in 10.0 mi Variable 6.9 mph - N/A   Clear
12:56 PM 91.9 °F - 52.0 °F 26% 30.05 in 10.0 mi Variable 6.9 mph - N/A   Clear
1:56 PM 92.8 °F - 48.9 °F 22% 30.02 in 10.0 mi East 6.9 mph - N/A   Clear
2:56 PM 95.0 °F - 45.9 °F 18% 29.99 in 10.0 mi NNE 8.1 mph - N/A   Clear
3:56 PM 95.9 °F - 45.9 °F 18% 29.96 in 10.0 mi ESE 8.1 mph - N/A   Clear
4:56 PM 95.9 °F - 45.0 °F 17% 29.94 in 10.0 mi Variable 5.8 mph - N/A   Clear
5:56 PM 95.9 °F - 46.9 °F 19% 29.93 in 10.0 mi ENE 11.5 mph 17.3 mph N/A   Clear
6:56 PM 93.9 °F - 45.9 °F 19% 29.93 in 10.0 mi ENE 5.8 mph - N/A   Clear
7:56 PM 90.9 °F - 50.0 °F 25% 29.94 in 10.0 mi East 4.6 mph - N/A   Clear
8:56 PM 88.9 °F - 52.9 °F 29% 29.95 in 10.0 mi SE 11.5 mph - N/A   Clear
9:56 PM 86.0 °F 85.4 °F 59.0 °F 40% 29.98 in 10.0 mi ESE 15.0 mph - N/A   Clear
10:56 PM 82.4 °F 82.9 °F 60.8 °F 48% 30.04 in 10.0 mi SE 12.7 mph - N/A   Clear
11:56 PM 79.9 °F - 59.9 °F 50% 30.01 in 10.0 mi SE 13.8 mph - N/A   Clear